Other Public Products
Issued by NWS Charleston, SC

Current Version | Previous Version | Text Only | Print | Product List | Glossary On
Versions: 1 2 3 4 5 6 7 8 9 10 11 12 13 14 15 16 17 18 19 20 21 22 23 24 25 26 27 28 29 30 31 32 33 34 35 36 37 38 39 40 41 42 43 44 45 46 47 48 49 50
000 FPUS82 KCHS 211227 OPUCHS TEST...KCHS/KSAV Gateway Observations...TEST National Weather Service Charleston SC 800 AM EDT MON AUG 21 2017 NOTE: "fair" indicates few or no clouds below 12,000 feet with no significant weather and/or obstructions to visibility. SCZ050-WAZ558-NCZ071-TXZ119-213-PAZ071-DCZ001-FLZ074-172-MI076- NYZ176-178-MAZ016-IL014-TNZ027-NJZ106-GAZ044-MD014-211300- ...Gateway Observations for Charleston International... CITY SKY/WX TMP DP RH WIND PRES REMARKS Chas Airport CLOUDY 80 79 96 CALM 30.17R 6HR MIN TEMP: 77; 6HR MAX TEMP: 80; Seattle CLEAR 60 55 83 N8 30.12S 6HR MIN TEMP: 60; 6HR MAX TEMP: 66; Charlotte MOSUNNY 79 75 87 CALM 30.21R 6HR MIN TEMP: 72; 6HR MAX TEMP: 81; Dallas DFW PTCLDY 79 72 79 S6 30.04S 6HR MIN TEMP: 79; 6HR MAX TEMP: 86; Dallas Love PTCLDY 80 72 76 S7 30.05S 6HR MIN TEMP: 80; 6HR MAX TEMP: 85; Philladelphia PTSUNNY 72 67 84 S3 30.23R 6HR MIN TEMP: 67; 6HR MAX TEMP: 72; Wash National PTSUNNY 77 72 84 SE3 30.21R 6HR MIN TEMP: 75; 6HR MAX TEMP: 77; Baltimore PTSUNNY 74 70 87 CALM 30.20S 6HR MIN TEMP: 67; 6HR MAX TEMP: 74; Miami MOSUNNY 86 74 67 E12 30.04S HX 94 6HR MIN TEMP: 83; 6HR MAX TEMP: 86; 6HR PCP: TRACE; Detroit CLOUDY 73 70 90 E3 30.12R FOG 6HR MIN TEMP: 69; 6HR MAX TEMP: 74; Newark PTSUNNY 72 65 78 SW3 30.20S 6HR MIN TEMP: 66; 6HR MAX TEMP: 72; Laguardia SUNNY 77 65 66 SW3 30.19R 6HR MIN TEMP: 75; 6HR MAX TEMP: 78; J F K PTSUNNY 75 67 76 W8 30.21R 6HR MIN TEMP: 70; 6HR MAX TEMP: 75; Boston Logan MOSUNNY 72 60 66 W7 30.17R 6HR MIN TEMP: 69; 6HR MAX TEMP: 73; Ft. Lauderdale MOSUNNY 84 76 76 E17 30.04R HX 93 6HR MIN TEMP: 83; 6HR MAX TEMP: 85; Chicago O`Hare CLOUDY 71 68 90 S5 30.05S 6HR MIN TEMP: 71; 6HR MAX TEMP: 74; 6HR PCP: 0.03; Chicago Midway CLOUDY 73 69 87 SW8 30.05S 6HR MIN TEMP: 73; 6HR MAX TEMP: 77; Houston Bush PTCLDY 78 76 93 NE5 30.04F 6HR MIN TEMP: 78; 6HR MAX TEMP: 82; Houston Hobby PTCLDY 81 75 82 CALM 30.04S 6HR MIN TEMP: 81; 6HR MAX TEMP: 84; Nashville PTCLDY 73 70 90 CALM 30.17R 6HR MIN TEMP: 70; 6HR MAX TEMP: 75; Atlanta MOSUNNY 77 71 82 E5 30.19R 6HR MIN TEMP: 75; 6HR MAX TEMP: 80; $$ GAZ044-118-TXZ119-213-NCZ071-DCZ001-MDZ014-506-PAZ021-071-NJZ106- NYZ176-178-MAZ106-OHZ011-021-055-MIZ076-KYZ091-ILZ014-INZ047- MNZ060-ONZ431-211300- ...Gateway Observations for Savannah International... CITY SKY/WX TMP DP RH WIND PRES REMARKS Savannah Arpt PTSUNNY 80 78 94 N5 30.17R 6HR MIN TEMP: 77; 6HR MAX TEMP: 81; Atlanta MOSUNNY 77 71 82 E5 30.19R 6HR MIN TEMP: 75; 6HR MAX TEMP: 80; Charlotte MOSUNNY 79 75 87 CALM 30.21R 6HR MIN TEMP: 72; 6HR MAX TEMP: 81; Dallas DFW PTCLDY 79 72 79 S6 30.04S 6HR MIN TEMP: 79; 6HR MAX TEMP: 86; Houston Bush PTCLDY 78 76 93 NE5 30.04F 6HR MIN TEMP: 78; 6HR MAX TEMP: 82; Wash National PTSUNNY 77 72 84 SE3 30.21R 6HR MIN TEMP: 75; 6HR MAX TEMP: 77; Wash Dulles PTSUNNY 74 71 91 S3 30.21R 6HR MIN TEMP: 69; 6HR MAX TEMP: 74; Baltimore PTSUNNY 74 70 87 CALM 30.20S 6HR MIN TEMP: 67; 6HR MAX TEMP: 74; Philadelphia PTSUNNY 72 67 84 S3 30.23R 6HR MIN TEMP: 67; 6HR MAX TEMP: 72; Newark PTSUNNY 72 65 78 SW3 30.20S 6HR MIN TEMP: 66; 6HR MAX TEMP: 72; Laguardia SUNNY 77 65 66 SW3 30.19R 6HR MIN TEMP: 75; 6HR MAX TEMP: 78; J F K PTSUNNY 75 67 76 W8 30.21R 6HR MIN TEMP: 70; 6HR MAX TEMP: 75; Boston MOSUNNY 72 60 66 W7 30.17R 6HR MIN TEMP: 69; 6HR MAX TEMP: 73; Pittsburg PTSUNNY 68 64 87 S3 30.18R 6HR MIN TEMP: 65; 6HR MAX TEMP: 70; Akron PTSUNNY 71 66 84 S5 30.17R 6HR MIN TEMP: 68; 6HR MAX TEMP: 73; Cleveland PTSUNNY 76 67 73 SW8 30.15R 6HR MIN TEMP: 73; 6HR MAX TEMP: 79; Cincinnati PTSUNNY 73 70 90 SW3 30.17R 6HR MIN TEMP: 71; 6HR MAX TEMP: 75; Columbus CLOUDY 71 69 95 S5 30.16S Detroit CLOUDY 73 70 90 E3 30.12R FOG 6HR MIN TEMP: 69; 6HR MAX TEMP: 74; Chicago O`Hare CLOUDY 71 68 90 S5 30.05S 6HR MIN TEMP: 71; 6HR MAX TEMP: 74; 6HR PCP: 0.03; Minneapolis CLOUDY 68 57 68 NE6 30.04F 6HR MIN TEMP: 66; 6HR MAX TEMP: 70; Indianapolis PTCLDY 72 68 87 SE5 30.12S 6HR MIN TEMP: 71; 6HR MAX TEMP: 77; Toronto Canada MOSUNNY 70 61 73 CALM 30.11R $$

USA.gov is the U.S. government's official web portal to all federal, state and local government web resources and services.